P/2008 O2 (McNaught)
Epoch 2009 May 9.0 TT = JDT 2454960.5  
T 2009 Apr. 21.57984 TT                                 Nakano
q   3.8038156            (2000.0)            P               Q
n   0.10347517     Peri.   27.46076     +0.98964968     +0.10945439
a   4.4934365      Node   325.86001     -0.14186801     +0.84360972
e   0.1534729      Incl.    9.51864     +0.02160948     +0.52568277
P   9.53
From 402 observations 2008 July 28-2009 Nov. 11, mean residual 0".62.
Residuals in seconds of arc 
2008/                     080810 372  0.1-  0.5+    080909 J47  0.2+  0.1-  
080728 E12  0.1+  0.2-    080810 372  0.1+  0.6+    080909 J47  0.1-  0.1+  
080728 E12  0.1+  0.0     080810 372  0.1-  0.6+    080909 J47 (3.0-  1.1-) 
080728 E12  0.3+  0.0     080810 246  0.3-  0.2+    080916 J47  0.1+  1.1+  
080728 E12  0.0   0.1+    080810 246  0.2-  0.3+    080916 J47  0.6+  0.9+  
080728 E12  0.1+  0.1-    080810 246  0.3-  0.2-    080916 J47  1.2+  1.5+  
080728 E12  0.5+  0.3-    080810 246  0.2-  0.2+    080916 J47  0.8+  0.4+  
080728 B40  0.1-  0.6-    080810 246  0.0   0.1+    080917 415  0.2-  0.5+  
080728 246  0.2+  0.2-    080811 322  0.1+  0.7-    080917 415  0.0   0.1-  
080728 246  0.1+  0.5+    080811 322  0.6+  0.4-    080922 G96  0.2+  0.4-  
080728 246  0.2-  0.4-    080811 322  0.8-  0.6-    080922 G96  0.3-  0.5-  
080728 246  0.1-  0.3-    080811 585  1.1+  1.4-    080922 G96  0.9-  0.9-  
080728 246  0.1-  0.1-    080811 585  0.7+  0.3-    080922 G96  0.4-  0.6-  
080728 246  0.1-  0.0     080811 585  1.4+  0.0     080922 467  0.5+  0.1+  
080728 246  0.2+  0.3-    080811 585  1.5+  1.2+    080922 467  0.3+  0.1+  
080728 246  0.5-  0.1-    080811 585  1.1+  0.8+    080922 900 (0.4-  2.3+) 
080728 B40  0.4+  0.5-    080811 585  0.9+  0.6+    080922 900  0.1-  0.4-  
080729 J47  0.4+  0.9+    080811 585  0.3-  0.3-    080925 467  0.1-  0.1-  
080729 J47  1.4-  0.7-    080811 585  0.5-  0.7-    080925 467  0.1+  0.1+  
080729 J47  0.4-  1.1-    080813 I31  1.3-  0.9-    080925 467  0.1-  0.1+  
080729 J47  0.1-  0.6-    080813 900  0.8+  0.4+    080928 467  0.5+  0.3-  
080729 H55  0.3+  0.3+    080813 900  0.2-  0.2-    080928 467  0.4+  0.2-  
080729 H55  0.5+  0.1+    080813 J95  0.1-  0.7-    080928 467  0.1+  0.0   
080729 H55  0.5+  0.3+    080813 J95  0.3+  0.5+    080928 467  0.2+  0.1-  
080729 H55  0.2+  0.2+    080817 900  0.4+  0.3-    080928 J47  0.4-  0.3+  
080729 H55  0.4+  0.2+    080817 900  0.2+  0.2+    080928 J47  0.2-  0.2+  
080729 H55  0.4+  0.1+    080817 147 (7.3-  2.1-)   080928 J47  0.2-  0.3+  
080729 H55  0.2+  0.4+    080818 118  0.4-  0.2-    080928 J47  0.1-  0.5+  
080729 H55  0.3+  0.2+    080818 118  0.3-  0.9-    080929 130  0.8-  0.9-  
080729 H55  0.2+  0.0     080819 E12  0.0   0.1-    080929 130  0.5+  0.2+  
080729 H06  0.9-  1.2+    080821 900  1.3-  0.2+    080929 130  0.2+  0.1-  
080729 H06  0.6+  0.1+    080821 900  0.5-  0.2+    081001 A71  0.9+  0.9-  
080729 G96  0.7-  0.6-    080821 104  0.8-  0.4-    081001 A71  1.4-  0.8-  
080729 H06  0.3-  1.2+    080821 104  0.2-  0.9+    081005 A77 (5.1-  3.3-) 
080729 G96  0.5+  0.1-    080821 104  0.4-  0.1-    081015 E12  0.5+  0.4-  
080729 G96  1.7-  0.3-    080821 104  0.6-  0.0     081021 E12  0.2+  0.3-  
080729 G96  0.5-  0.2+    080822 673  0.2+  0.2+    081031 704  0.4-  0.1+  
080729 900  0.1-  0.2-    080822 673  0.2+  0.2+    081031 704  0.2+  0.9-  
080729 900  0.8-  1.7-    080822 673  0.4+  0.4+    081031 704  0.9-  0.3+  
080729 J95  0.1-  0.3-    080822 673  0.4+  0.4+    081031 704  0.0   0.5+  
080729 J95  0.2+  0.7+    080823 423  0.6+  0.1+    081031 704  0.7+  1.1+  
080730 A06  0.2+  0.3-    080823 423  0.6-  0.2-    081119 704  0.6-  0.2-  
080730 A06  0.4-  0.0     080823 147  0.6-  0.7+    081119 704  0.0   0.1-  
080730 A06  0.9-  0.5+    080824 704  0.4-  0.7-    081119 704  0.1+  0.9-  
080730 I77  1.3-  0.4-    080824 704  0.7-  0.5-    081119 704  0.0   0.3-  
080730 I77  1.0-  0.2-    080824 704  0.4-  0.4-    081119 704  0.8+  0.1+  
080730 I77  1.3-  0.3-    080824 704  0.4-  0.6-    081123 J24  1.5+  0.9+  
080730 I77  1.1-  0.3-    080824 704  1.0-  0.2-    081123 J24  1.6+  0.6+  
080730 F84  0.1-  0.2-    080824 246  0.0   0.0     081123 J24  0.8+  0.8+  
080730 F84  0.0   0.3-    080824 246  0.2-  0.2+    081125 704  0.5-  0.3+  
080730 E08  1.0+  0.4+    080824 246  0.2+  0.1+    081125 704  0.1+  0.0   
080730 E08  0.7+  0.2+    080824 246  0.6+  0.1-    081125 704  0.0   0.2-  
080730 E08  0.3+  0.2+    080824 246  0.1+  0.0     081127 215  0.6+  0.1-  
080730 E16  1.9-  0.9-    080824 246  0.0   0.1+    081206 204  0.3-  0.2-  
080730 E16  1.8-  0.1-    080824 246  0.5+  0.0     081220 J24  0.6-  0.0   
080730 E16  1.1-  0.7+    080824 246  0.1-  0.1-    081220 J24  0.9-  0.3-  
080730 E12  0.3+  0.1-    080824 246  0.1+  0.2-    2009/                   
080730 J95  0.0   0.3-    080824 204  0.1-  0.2-    090725 349  0.7-  1.1-  
080730 J95  0.2-  0.2+    080824 204  0.2-  0.1-    090726 349  0.1+  1.1-  
080730 J95  0.1+  0.3-    080825 I32  0.3+  0.3+    090726 349  0.3+  1.7-  
080731 900  0.3+  0.4+    080825 J47  0.2+  0.2+    090814 349 (2.1+  0.9+) 
080731 900  0.3-  0.4+    080825 J47  0.0   0.0     090814 349 (2.3+  0.4+) 
080731 104  1.0-  1.4+    080825 J47  0.2-  0.1+    090817 H10  1.1+  0.7+  
080731 104  0.3-  1.4+    080825 J47  0.1-  0.2+    090817 H10  1.9+  0.5+  
080731 104  0.2+  0.5+    080827 246 (1.4+  2.2-)   090820 H10  1.8+  0.6+  
080731 B20  0.0   0.8+    080827 246  1.0+  0.3-    090820 H10  1.9+  0.8+  
080731 B20  0.0   0.9+    080827 246  0.6+  0.5-    090828 204  0.5+  0.3+  
080731 B20  0.0   0.7+    080827 246  1.3+  0.6-    090828 204  0.0   0.6-  
080731 204  0.2+  0.4+    080827 246  1.7+  0.2-    090831 B42  0.7-  1.2+  
080801 204  0.1-  0.2+    080827 246  1.6+  1.2-    090919 235  1.9-  0.2+  
080801 I77  0.3-  0.2-    080827 215  0.0   0.2-    090920 B42  0.3+  0.2+  
080801 I77  0.2-  0.5-    080827 215  0.0   0.2-    090920 B42  0.9+  1.0+  
080801 I77  0.4-  0.2+    080827 215  0.0   0.3-    090920 B42  0.1+  1.2+  
080801 H55  0.2+  0.5+    080828 A77  0.4-  0.2+    090923 H10  0.3+  0.7+  
080801 682  0.2+  0.3-    080828 B26  0.1-  0.2+    090923 A13  0.6-  1.3-  
080801 H55  0.2+  0.5+    080828 A77  0.4-  0.2+    090923 A13  0.8-  1.1-  
080801 H55  0.2+  0.3+    080828 A77  0.2-  0.2+    090924 A32  0.3-  0.2+  
080801 682  0.0   0.4+    080829 B26  0.2-  1.1-    090924 A32  0.3-  0.0   
080801 213  0.5+  0.9+    080829 213  0.6-  0.0     090924 A32  0.5-  0.0   
080801 213  0.5+  0.8+    080829 213  0.4-  0.1+    090926 B82  1.8-  0.6+  
080802 J47 (4.6-  0.7+)   080829 213  0.2+  0.4+    090926 B82  0.7+  0.0   
080802 J47  0.8-  1.3+    080830 246  0.1-  0.1-    090926 B82  0.7+  0.6+  
080802 J47  0.4-  1.1+    080830 246  0.0   0.2+    090926 B82 (1.1+  2.7+) 
080802 H55  0.4+  0.1+    080830 246  0.2+  0.0     090926 B82 (0.7+  2.0+) 
080802 H55  0.5+  0.0     080830 246  0.2-  0.4-    090927 204  0.0   0.3+  
080802 423  1.1-  0.2-    080830 246  0.3+  0.1-    090928 B82  0.5+  0.8+  
080802 367  0.9+  0.3-    080830 246  0.2-  0.4+    090928 B82  0.9+  1.4+  
080802 423  1.5-  0.3-    080830 246  0.3+  0.0     090928 B82  0.7-  0.2-  
080802 367  0.5-  0.7-    080830 046  0.1+  0.1+    090928 204  0.1-  0.0   
080802 349  0.8-  1.5+    080830 046  0.4+  0.2+    090929 160  1.2+  0.5+  
080802 349  0.8-  1.6+    080830 046  0.1-  0.4+    090929 G96  0.3-  0.1-  
080802 J95  0.1+  0.4-    080830 046  0.8+  0.5-    090929 G96  0.2-  0.3-  
080802 J95  0.2+  0.3-    080830 046  0.0   0.0     090929 G96  0.5+  0.2+  
080802 J95  0.6+  0.4-    080830 046  0.1+  0.3-    090929 G96  0.4+  0.6-  
080803 204  0.3+  0.0     080830 046  0.1-  0.6-    090929 B37  0.7-  0.0   
080803 204  0.2+  0.1+    080830 232  0.4-  0.5-    090930 B37  0.4-  0.1+  
080803 E08  0.4+  0.2+    080830 232  0.4-  0.4-    090930 B37  0.6+  0.6+  
080803 E08  0.7+  0.1-    080830 232  0.3-  0.2-    091011 B49 (2.4+  0.8-) 
080803 E08  0.1+  0.1-    080831 900  0.3-  0.1+    091013 160  0.1+  1.9-  
080803 372  0.6+  0.4+    080831 900  0.1-  0.2-    091013 160  1.0-  0.3-  
080803 372  0.5+  0.7+    080901 423  0.4-  0.5-    091013 160  0.2+  1.6+  
080803 372  0.4+  0.6+    080901 423  0.6-  0.4-    091015 900  0.8+  1.5-  
080803 215  0.5-  0.1-    080901 B26  0.4-  0.0     091015 900  1.4-  1.5-  
080803 215  0.2-  0.4-    080901 585  0.3+  0.5+    091015 J01  0.1-  0.2-  
080803 215  0.2-  0.7-    080901 585  0.5+  0.5+    091016 704  1.7+  0.9-  
080804 J40 (2.2+  1.6+)   080901 585  1.3+  1.2+    091016 704  0.1+  1.1+  
080804 J40 (2.8+  1.6+)   080901 585  0.6+  0.1+    091016 704  1.6+  0.2+  
080804 J40 (2.7-  3.0+)   080901 585  0.5-  0.3-    091016 704 (2.8+  0.6-) 
080805 E94  0.9+  0.4+    080901 585  0.2-  0.3-    091016 703  1.6-  0.0   
080805 E94  0.3-  0.1+    080901 585  0.5-  0.9+    091016 703  1.4-  0.5-  
080805 E94  0.7+  0.1-    080901 J53  0.1+  0.2+    091016 703  0.6-  0.1-  
080805 E94  0.7+  0.5+    080901 J53  0.1-  0.0     091016 703  1.4-  0.0   
080805 E94 (2.2-  0.1-)   080901 J53  0.3-  0.3-    091019 H45 (3.9+  1.8+) 
080805 E12  0.2+  0.0     080902 246  0.5+  0.1-    091019 H45  0.7+  0.6+  
080805 E12  0.4+  0.1-    080902 246  0.7+  0.7-    091019 H45  1.3+  0.7+  
080805 147  0.0   0.1-    080902 246  0.0   0.4-    091019 H45  0.9+  0.9+  
080805 147  0.6+  0.0     080902 246  0.4-  0.5-    091019 H45  1.6+  1.2+  
080806 J47  0.3+  0.9+    080902 246  0.2+  0.1-    091019 H45  0.7+  1.5+  
080806 J47  0.1-  0.9+    080902 246  0.3+  0.1-    091024 703  1.4-  1.1-  
080806 J47 (2.0-  1.0-)   080902 246  0.5+  0.6-    091024 703  1.8-  0.9-  
080807 428  0.7-  0.4-    080902 246  0.1-  0.8-    091024 703  1.8-  0.1-  
080807 428  0.3-  0.5-    080902 A71  0.8-  0.5+    091024 703  0.6-  0.1-  
080807 428  1.0-  0.6-    080902 A71  0.6-  0.2+    091024 703  1.2-  0.6-  
080807 349  0.2+  0.9-    080902 A71  0.5+  0.1-    091024 703  0.7-  0.3+  
080807 349  0.0   0.8-    080904 213  0.1+  0.0     091024 160  0.4-  0.7-  
080808 423  0.1-  0.3-    080904 213  0.3+  0.1+    091025 235  0.5-  0.6-  
080809 J38  0.0   0.7+    080904 B37  0.4-  0.5+    091025 160  0.3-  0.1-  
080809 J38  0.3-  0.1-    080904 B37  0.4-  0.4-    091026 160  0.1-  1.4+  
080809 J38  0.3-  0.1-    080904 B37  1.0-  1.5-    091026 160  0.8+  1.0-  
080809 423  0.6-  0.3-    080907 J47  0.0   0.7+    091107 B37  0.8+  1.3-  
080809 423  0.4+  0.5-    080907 J47  0.3+  0.5+    091107 B37  0.7-  0.4-  
080809 900  0.2+  0.1+    080907 J47  1.6+  0.2-    091107 B37  1.1-  0.2-  
080809 900  0.5+  0.0     080908 900  1.2+  0.4-    091108 J01  0.3+  0.3-  
080809 A02  0.4-  0.9+    080908 900  0.6+  0.9-    091108 J01  1.3+  0.1-  
080809 A02  0.1-  0.5-    080908 585  0.1-  1.5-    091109 204  0.1+  0.1+  
080809 A02  0.1-  1.0-    080908 585  1.4+  0.0     091109 204  0.1-  0.3+  
080810 J53  0.4+  0.1+    080908 585  0.4+  0.2+    091110 160  0.3-  0.7+  
080810 J53  0.2-  0.0     080908 585  0.7-  0.3+    091111 160  0.3+  0.8-  
080810 J53  0.2+  0.2+    080908 585  0.7+  0.5+    091111 160  0.3+  0.3-  
080810 423  0.1-  0.0     080909 423  1.1-  0.1-    091111 160  0.5+  0.3+  
080810 423  0.6-  0.1+    080909 423  0.2+  0.6-                            
NAKANO
         **** Don't distribute anyone except personal use only ****
           (C) Copyright 2009 Orbit.Astro.Assoc./ComputingSection
write mail from CFAD0::NAKANO on 2009-12-12 08:25:42(JST).
 
